Preview of NWS' New Version of Forecast
This preview is not operational and should not be used for support decisions.

Regional Weather Roundup (RWR)

Issued by National Weather Service (NWS)

                            
000
ASUS43 KBIS 231602
RWRND 

NORTH DAKOTA REGIONAL WEATHER ROUNDUP
NATIONAL WEATHER SERVICE BISMARCK ND
1100 AM CDT SAT MAR 23 2019

NOTE: "FAIR" INDICATES FEW OR NO CLOUDS BELOW 12,000 FEET WITH NO
SIGNIFICANT WEATHER AND/OR OBSTRUCTIONS TO VISIBILITY.


NDZ001>003-009>011-017-231700-
NORTHWEST NORTH DAKOTA
  
CITY           SKY/WX    TMP DP  RH WIND       PRES   REMARKS
WILLISTON      PTSUNNY   40  33  76 SE6       29.96S                  
MINOT          CLOUDY    42  33  70 S9        29.98S                  
MINOT AFB      CLOUDY    42  34  74 S3        29.98R                  
$$
 
NDZ018>021-031>035-040>046-231700-
SOUTHWEST NORTH DAKOTA
  
CITY           SKY/WX    TMP DP  RH WIND       PRES   REMARKS
BISMARCK       PTSUNNY   35  29  78 E3        30.05R                  
DICKINSON      PTSUNNY   39  34  82 S6        29.96R                  
GARRISON         N/A     34  30  85 S5        30.00F                  
HETTINGER ARPT PTSUNNY   38  34  85 SE10      29.99R                  
$$
 
NDZ004>008-012>016-024-026-027-054-231700-
NORTHEAST NORTH DAKOTA
  
CITY           SKY/WX    TMP DP  RH WIND       PRES   REMARKS
GRAND FORKS    MOSUNNY   28  25  88 S15       30.07F WCI  16          
GRND FRKS AFB  SUNNY     34  29  83 S9        30.06S                  
DEVILS LAKE    MOSUNNY   34  29  82 SW10      30.03F                  
$$
 
NDZ022-023-025-028>030-036>039-047>053-231700-
SOUTHEAST NORTH DAKOTA
  
CITY           SKY/WX    TMP DP  RH WIND       PRES   REMARKS
FARGO          MOSUNNY   34  30  85 S9        30.13S                  
JAMESTOWN      CLOUDY    34  32  92 S8        30.05S                  
$$